User: anonymous   Login
Location: Lecco
(45.8566°N, 9.3977°E)
Time: 20:21:14
(UTC+02:00)
Language:

Courier 1B Rocket - Orbit

View from above orbital plane
View from above orbital plane
View from above satellite
View from above satellite

Ground track
Ground track

The orbit data is extracted from the following two-line orbital elements,

1    59U 60013B   20226.87397268 +.00000091 +00000-0 +87898-5 0  9991
2    59 028.2475 283.2520 0189318 048.1141 313.5391 13.52978388954383
Epoch (UTC): 13 August 2020 20:58:31
Eccentricity: 0.0189318
inclination: 28.2475°
perigee height: 920 km
apogee height: 1202 km
right ascension of ascending node: 283.2520°
argument of perigee: 48.1141°
revolutions per day: 13.52978388
mean anomaly at epoch: 313.5391°
orbit number at epoch: 95438

The dashed part of the orbit path shows where the satellite is in the earth's shadow,  

DLR